TimeCST,TemperatureF,Dew PointF,Humidity,Sea Level PressureIn,VisibilityMPH,Wind Direction,Wind SpeedMPH,Gust SpeedMPH,PrecipitationIn,Events,Conditions,WindDirDegrees,DateUTC
12:15 AM,37.2,26.4,65,30.09,10.0,WNW,8.1,-,N/A,,Clear,300,2012-12-04 06:15:00
12:35 AM,37.2,25.9,64,30.10,10.0,WNW,8.1,-,N/A,,Clear,290,2012-12-04 06:35:00
12:55 AM,36.7,25.7,64,30.09,10.0,WNW,10.4,-,N/A,,Clear,290,2012-12-04 06:55:00
1:15 AM,37.0,25.3,63,30.09,10.0,WNW,11.5,-,N/A,,Clear,300,2012-12-04 07:15:00
1:35 AM,37.4,25.3,62,30.10,10.0,WNW,6.9,-,N/A,,Clear,300,2012-12-04 07:35:00
1:55 AM,37.4,24.6,60,30.11,10.0,WNW,5.8,-,N/A,,Clear,300,2012-12-04 07:55:00
2:15 AM,36.9,24.3,60,30.11,10.0,WNW,6.9,-,N/A,,Clear,290,2012-12-04 08:15:00
2:55 AM,35.6,24.1,63,30.11,10.0,West,5.8,-,N/A,,Clear,280,2012-12-04 08:55:00
3:15 AM,34.7,23.9,65,30.13,10.0,West,6.9,-,N/A,,Clear,280,2012-12-04 09:15:00
3:35 AM,35.1,23.5,63,30.13,10.0,WNW,8.1,-,N/A,,Clear,290,2012-12-04 09:35:00
3:55 AM,34.7,23.5,64,30.14,10.0,West,6.9,-,N/A,,Clear,280,2012-12-04 09:55:00
4:15 AM,35.6,23.5,62,30.15,10.0,West,10.4,-,N/A,,Clear,280,2012-12-04 10:15:00
4:35 AM,35.8,23.2,60,30.15,10.0,West,9.2,-,N/A,,Clear,280,2012-12-04 10:35:00
4:55 AM,36.7,22.8,57,30.16,10.0,West,8.1,-,N/A,,Clear,280,2012-12-04 10:55:00
5:15 AM,36.3,22.1,56,30.16,10.0,West,8.1,-,N/A,,Clear,280,2012-12-04 11:15:00
5:35 AM,35.8,22.1,58,30.17,10.0,West,8.1,-,N/A,,Clear,280,2012-12-04 11:35:00
5:55 AM,35.8,21.7,57,30.17,10.0,West,5.8,-,N/A,,Clear,260,2012-12-04 11:55:00
6:15 AM,34.9,21.6,58,30.19,10.0,West,4.6,-,N/A,,Clear,260,2012-12-04 12:15:00
6:35 AM,36.1,21.2,55,30.19,10.0,West,5.8,-,N/A,,Clear,260,2012-12-04 12:35:00
6:55 AM,35.4,21.2,56,30.21,10.0,Calm,Calm,-,N/A,,Clear,0,2012-12-04 12:55:00
7:15 AM,36.5,21.0,54,30.21,10.0,West,5.8,-,N/A,,Clear,260,2012-12-04 13:15:00
7:35 AM,30.7,21.2,68,30.22,10.0,Calm,Calm,-,N/A,,Clear,0,2012-12-04 13:35:00
7:55 AM,32.0,23.2,70,30.22,10.0,SSE,3.5,-,N/A,,Clear,160,2012-12-04 13:55:00
8:15 AM,33.8,22.8,64,30.23,10.0,SW,4.6,-,N/A,,Clear,220,2012-12-04 14:15:00
8:35 AM,35.2,23.4,62,30.23,10.0,SW,4.6,-,N/A,,Clear,230,2012-12-04 14:35:00
8:55 AM,37.6,25.0,60,30.24,10.0,Calm,Calm,-,N/A,,Clear,0,2012-12-04 14:55:00
9:15 AM,39.9,25.0,55,30.24,10.0,WSW,5.8,-,N/A,,Clear,240,2012-12-04 15:15:00
9:35 AM,42.4,25.7,52,30.25,10.0,West,4.6,-,N/A,,Clear,260,2012-12-04 15:35:00
9:55 AM,45.0,25.5,47,30.24,10.0,WSW,4.6,-,N/A,,Clear,250,2012-12-04 15:55:00
10:15 AM,48.0,24.6,40,30.25,10.0,WSW,5.8,-,N/A,,Clear,250,2012-12-04 16:15:00
10:35 AM,50.2,24.4,37,30.25,10.0,West,5.8,-,N/A,,Clear,270,2012-12-04 16:35:00
10:55 AM,51.8,24.4,34,30.26,10.0,WNW,3.5,-,N/A,,Clear,300,2012-12-04 16:55:00
11:15 AM,53.1,24.4,33,30.25,10.0,West,4.6,-,N/A,,Clear,270,2012-12-04 17:15:00
11:35 AM,55.6,24.6,30,30.24,10.0,West,5.8,-,N/A,,Clear,260,2012-12-04 17:35:00
11:55 AM,57.6,24.3,28,30.24,10.0,West,8.1,-,N/A,,Clear,280,2012-12-04 17:55:00
12:15 PM,58.6,22.3,25,30.24,10.0,West,9.2,-,N/A,,Clear,270,2012-12-04 18:15:00
12:35 PM,59.5,22.1,24,30.23,10.0,West,9.2,-,N/A,,Clear,260,2012-12-04 18:35:00
12:55 PM,60.1,21.9,23,30.23,10.0,West,6.9,-,N/A,,Clear,280,2012-12-04 18:55:00
1:15 PM,59.0,23.5,26,30.23,10.0,NW,6.9,-,N/A,,Clear,320,2012-12-04 19:15:00
1:35 PM,59.0,23.7,26,30.23,10.0,NW,6.9,-,N/A,,Clear,310,2012-12-04 19:35:00
1:55 PM,59.0,22.8,25,30.23,10.0,NW,6.9,-,N/A,,Clear,310,2012-12-04 19:55:00
2:15 PM,59.0,23.2,25,30.23,10.0,NW,3.5,-,N/A,,Clear,320,2012-12-04 20:15:00
2:35 PM,59.0,23.0,25,30.22,10.0,WNW,5.8,-,N/A,,Clear,290,2012-12-04 20:35:00
2:55 PM,59.4,22.6,24,30.22,10.0,NW,3.5,-,N/A,,Clear,310,2012-12-04 20:55:00
3:15 PM,58.8,22.6,25,30.22,10.0,WNW,3.5,-,N/A,,Clear,300,2012-12-04 21:15:00
3:35 PM,58.1,23.2,26,30.22,10.0,NNW,5.8,-,N/A,,Clear,330,2012-12-04 21:35:00
3:55 PM,57.2,23.5,27,30.22,10.0,NNW,3.5,-,N/A,,Clear,330,2012-12-04 21:55:00
4:15 PM,54.9,24.4,31,30.23,10.0,NW,3.5,-,N/A,,Clear,320,2012-12-04 22:15:00
4:35 PM,53.4,24.1,32,30.24,10.0,Calm,Calm,-,N/A,,Clear,0,2012-12-04 22:35:00
4:55 PM,50.4,23.5,35,30.24,10.0,NW,3.5,-,N/A,,Clear,310,2012-12-04 22:55:00
5:15 PM,52.2,23.0,32,30.24,10.0,Calm,Calm,-,N/A,,Clear,0,2012-12-04 23:15:00
5:35 PM,53.8,23.0,30,30.25,10.0,Calm,Calm,-,N/A,,Clear,0,2012-12-04 23:35:00
5:55 PM,48.4,23.0,37,30.25,10.0,Calm,Calm,-,N/A,,Clear,0,2012-12-04 23:55:00
6:15 PM,50.9,23.4,34,30.25,10.0,Calm,Calm,-,N/A,,Clear,0,2012-12-05 00:15:00
6:35 PM,51.1,23.4,34,30.25,10.0,Calm,Calm,-,N/A,,Clear,0,2012-12-05 00:35:00
6:55 PM,51.6,23.0,33,30.25,10.0,Calm,Calm,-,N/A,,Clear,0,2012-12-05 00:55:00
7:15 PM,50.4,23.0,34,30.25,10.0,Calm,Calm,-,N/A,,Clear,0,2012-12-05 01:15:00
7:35 PM,47.7,23.0,38,30.26,10.0,Calm,Calm,-,N/A,,Clear,0,2012-12-05 01:35:00
7:55 PM,48.7,23.0,36,30.27,10.0,Calm,Calm,-,N/A,,Clear,0,2012-12-05 01:55:00
8:15 PM,49.5,22.6,35,30.26,10.0,Calm,Calm,-,N/A,,Clear,0,2012-12-05 02:15:00
8:35 PM,48.0,22.8,37,30.26,10.0,Calm,Calm,-,N/A,,Clear,0,2012-12-05 02:35:00
8:55 PM,46.9,23.0,39,30.26,10.0,Calm,Calm,-,N/A,,Clear,0,2012-12-05 02:55:00
9:15 PM,47.7,23.2,38,30.26,10.0,Calm,Calm,-,N/A,,Clear,0,2012-12-05 03:15:00
9:35 PM,44.4,24.1,45,30.27,10.0,East,4.6,-,N/A,,Clear,90,2012-12-05 03:35:00
9:55 PM,45.7,24.3,43,30.28,10.0,ENE,4.6,-,N/A,,Clear,70,2012-12-05 03:55:00
10:15 PM,43.3,24.8,48,30.28,10.0,Calm,Calm,-,N/A,,Clear,0,2012-12-05 04:15:00
10:35 PM,41.5,24.8,51,30.28,10.0,NE,4.6,-,N/A,,Clear,50,2012-12-05 04:35:00
10:55 PM,39.6,25.2,56,30.28,10.0,Calm,Calm,-,N/A,,Clear,0,2012-12-05 04:55:00
11:15 PM,40.8,24.8,53,30.29,10.0,Calm,Calm,-,N/A,,Clear,0,2012-12-05 05:15:00
11:35 PM,41.0,24.8,53,30.29,10.0,East,4.6,-,N/A,,Clear,90,2012-12-05 05:35:00
11:55 PM,41.0,24.6,52,30.29,10.0,East,3.5,-,N/A,,Clear,80,2012-12-05 05:55:00